Welcome to Des Moines Iowa Weather. I am an independent private personal weather station on the Northwest Side of Des Moines, Iowa. Just East of Windsor Heights and just West of Glendale . This site is also mobile friendly.

There are no active watches, warnings or advisories


Visit our other weather sites:

Historical Data

Weather Station Setup



Weather Underground History page Text

Daily Summary for February 2, 2017 Units:  English    Metric   Both
« Previous Day
Next Day »
Daily Weekly Monthly Yearly Custom
  High: Low: Average:
Temperature: 23.6 °F 14.8 °F 18.5 °F
Dew Point: 13.0 °F 6.0 °F 9.9 °F
Humidity: 76 % 60 % 69 %
Wind Speed: 11.0 mph 0.0 mph 2.9 mph
Wind Gust: 15.0 mph - -
Wind:- - WNW
Pressure: 30.60 in 30.48 in -
Precipitation: 0.00 in    
Historical Graphs
 
 
Tabular Data for February 2, 2017
Time Temperature Dew Point Pressure Wind Wind Speed Wind Gust Humidity Rainfall Rate (Hourly)
00:09 19.9 °F 11.0 °F 30.48 in WNW 3.0 mph 14.0 mph 67 % 0.00 in
00:24 19.3 °F 11.0 °F 30.48 in NW 6.0 mph 12.0 mph 69 % 0.00 in
00:39 18.8 °F 10.0 °F 30.49 in NW 3.0 mph 12.0 mph 68 % 0.00 in
00:54 18.4 °F 10.0 °F 30.49 in NNW 6.0 mph 10.0 mph 69 % 0.00 in
01:09 18.1 °F 10.0 °F 30.49 in NW 3.0 mph 11.0 mph 70 % 0.00 in
01:24 17.9 °F 10.0 °F 30.50 in NW 1.0 mph 8.0 mph 71 % 0.00 in
01:39 17.6 °F 10.0 °F 30.50 in NW 9.0 mph 13.0 mph 72 % 0.00 in
01:54 17.0 °F 8.0 °F 30.50 in WNW 11.0 mph 12.0 mph 69 % 0.00 in
02:10 16.7 °F 9.0 °F 30.52 in NNW 2.0 mph 9.0 mph 70 % 0.00 in
02:25 16.5 °F 9.0 °F 30.52 in NW 4.0 mph 4.0 mph 72 % 0.00 in
02:40 16.2 °F 9.0 °F 30.52 in NW 3.0 mph 9.0 mph 72 % 0.00 in
02:55 15.8 °F 8.0 °F 30.52 in WNW 2.0 mph 11.0 mph 71 % 0.00 in
03:10 15.6 °F 7.0 °F 30.52 in NW 2.0 mph 8.0 mph 70 % 0.00 in
03:25 15.3 °F 6.0 °F 30.52 in NW 4.0 mph 8.0 mph 68 % 0.00 in
03:40 15.3 °F 7.0 °F 30.52 in NW 3.0 mph 5.0 mph 69 % 0.00 in
03:55 15.3 °F 7.0 °F 30.52 in NW 3.0 mph 6.0 mph 70 % 0.00 in
04:10 15.2 °F 7.0 °F 30.53 in NW 3.0 mph 5.0 mph 69 % 0.00 in
04:25 15.2 °F 7.0 °F 30.53 in Calm   5.0 mph 69 % 0.00 in
04:40 15.2 °F 7.0 °F 30.53 in WNW 5.0 mph 6.0 mph 70 % 0.00 in
04:55 15.2 °F 7.0 °F 30.53 in NW 7.0 mph 9.0 mph 69 % 0.00 in
05:10 15.2 °F 6.0 °F 30.53 in North 2.0 mph 9.0 mph 68 % 0.00 in
05:25 15.1 °F 7.0 °F 30.54 in WNW 3.0 mph 5.0 mph 69 % 0.00 in
05:40 15.0 °F 7.0 °F 30.54 in Calm   9.0 mph 70 % 0.00 in
05:55 14.9 °F 7.0 °F 30.54 in NW 2.0 mph 9.0 mph 71 % 0.00 in
06:10 14.9 °F 7.0 °F 30.54 in NW 2.0 mph 10.0 mph 72 % 0.00 in
06:25 14.9 °F 7.0 °F 30.54 in Calm   5.0 mph 72 % 0.00 in
06:40 14.8 °F 8.0 °F 30.55 in NW 4.0 mph 9.0 mph 74 % 0.00 in
06:55 14.8 °F 8.0 °F 30.55 in NW 1.0 mph 6.0 mph 74 % 0.00 in
07:10 14.8 °F 8.0 °F 30.57 in WNW 4.0 mph 8.0 mph 75 % 0.00 in
07:25 14.8 °F 8.0 °F 30.57 in NW 3.0 mph 9.0 mph 75 % 0.00 in
07:40 14.9 °F 8.0 °F 30.57 in NNE 5.0 mph 8.0 mph 75 % 0.00 in
07:55 15.1 °F 9.0 °F 30.57 in NW 4.0 mph 8.0 mph 75 % 0.00 in
08:10 15.4 °F 9.0 °F 30.57 in NW 5.0 mph 8.0 mph 75 % 0.00 in
08:25 15.6 °F 8.0 °F 30.57 in NW 3.0 mph 13.0 mph 73 % 0.00 in
08:40 16.0 °F 8.0 °F 30.57 in NW 2.0 mph 15.0 mph 72 % 0.00 in
08:55 16.1 °F 8.0 °F 30.57 in NW 3.0 mph 13.0 mph 71 % 0.00 in
09:10 16.3 °F 8.0 °F 30.58 in North 4.0 mph 12.0 mph 70 % 0.00 in
09:25 16.7 °F 8.0 °F 30.59 in NE 6.0 mph 10.0 mph 69 % 0.00 in
09:40 16.9 °F 9.0 °F 30.59 in NNW 3.0 mph 11.0 mph 70 % 0.00 in
09:56 17.0 °F 8.0 °F 30.59 in NW 1.0 mph 9.0 mph 69 % 0.00 in
10:11 17.2 °F 9.0 °F 30.59 in NW 3.0 mph 9.0 mph 69 % 0.00 in
10:25 17.4 °F 9.0 °F 30.59 in NW 3.0 mph 6.0 mph 70 % 0.00 in
10:41 17.9 °F 10.0 °F 30.59 in NNE 3.0 mph 6.0 mph 70 % 0.00 in
10:56 18.0 °F 10.0 °F 30.60 in NNW 4.0 mph 9.0 mph 70 % 0.00 in
11:11 18.8 °F 11.0 °F 30.59 in NW 3.0 mph 9.0 mph 71 % 0.00 in
11:26 19.6 °F 11.0 °F 30.59 in NW 5.0 mph 8.0 mph 70 % 0.00 in
11:41 19.4 °F 11.0 °F 30.59 in NW 2.0 mph 12.0 mph 69 % 0.00 in
11:56 20.2 °F 12.0 °F 30.58 in NW 3.0 mph 8.0 mph 69 % 0.00 in
12:11 19.9 °F 11.0 °F 30.57 in North 3.0 mph 9.0 mph 68 % 0.00 in
12:26 20.9 °F 11.0 °F 30.56 in NW 5.0 mph 9.0 mph 65 % 0.00 in
12:41 21.0 °F 11.0 °F 30.56 in NW 3.0 mph 15.0 mph 64 % 0.00 in
12:56 20.7 °F 10.0 °F 30.55 in West 3.0 mph 11.0 mph 64 % 0.00 in
13:11 21.4 °F 11.0 °F 30.55 in WNW 2.0 mph 9.0 mph 64 % 0.00 in
13:26 21.4 °F 10.0 °F 30.55 in NW 8.0 mph 15.0 mph 62 % 0.00 in
13:41 21.7 °F 10.0 °F 30.54 in WNW 2.0 mph 11.0 mph 62 % 0.00 in
13:56 21.5 °F 11.0 °F 30.54 in NW 8.0 mph 13.0 mph 63 % 0.00 in
14:11 22.1 °F 11.0 °F 30.53 in WNW 1.0 mph 10.0 mph 62 % 0.00 in
14:26 22.5 °F 11.0 °F 30.52 in NW 3.0 mph 11.0 mph 61 % 0.00 in
14:41 22.3 °F 11.0 °F 30.52 in NNW 2.0 mph 10.0 mph 61 % 0.00 in
14:56 22.5 °F 11.0 °F 30.51 in SW 1.0 mph 8.0 mph 61 % 0.00 in
15:11 22.6 °F 11.0 °F 30.52 in WNW 3.0 mph 10.0 mph 62 % 0.00 in
15:26 23.2 °F 12.0 °F 30.51 in NW 2.0 mph 9.0 mph 63 % 0.00 in
15:41 23.6 °F 11.0 °F 30.52 in WNW 6.0 mph 13.0 mph 60 % 0.00 in
15:56 23.6 °F 11.0 °F 30.52 in WNW 2.0 mph 10.0 mph 60 % 0.00 in
16:11 22.8 °F 11.0 °F 30.52 in NW 6.0 mph 10.0 mph 61 % 0.00 in
16:26 22.7 °F 11.0 °F 30.52 in West 7.0 mph 11.0 mph 61 % 0.00 in
16:41 22.6 °F 11.0 °F 30.52 in NW 9.0 mph 11.0 mph 61 % 0.00 in
16:56 22.4 °F 11.0 °F 30.52 in NW 4.0 mph 9.0 mph 61 % 0.00 in
17:11 22.1 °F 11.0 °F 30.51 in NW 4.0 mph 8.0 mph 62 % 0.00 in
17:26 21.8 °F 11.0 °F 30.51 in NNW 2.0 mph 8.0 mph 63 % 0.00 in
17:41 21.5 °F 11.0 °F 30.50 in WNW 1.0 mph 5.0 mph 63 % 0.00 in
17:57 21.4 °F 11.0 °F 30.51 in NW 3.0 mph 4.0 mph 65 % 0.00 in
18:11 21.3 °F 11.0 °F 30.51 in NW 5.0 mph 8.0 mph 64 % 0.00 in
18:26 21.0 °F 11.0 °F 30.52 in Calm   5.0 mph 65 % 0.00 in
18:41 20.7 °F 11.0 °F 30.53 in WNW 3.0 mph 5.0 mph 66 % 0.00 in
18:56 20.4 °F 11.0 °F 30.53 in WNW 3.0 mph 3.0 mph 66 % 0.00 in
19:11 20.1 °F 11.0 °F 30.54 in WNW 1.0 mph 3.0 mph 68 % 0.00 in
19:26 19.8 °F 11.0 °F 30.52 in NW 1.0 mph 6.0 mph 69 % 0.00 in
19:41 19.6 °F 11.0 °F 30.51 in NE 2.0 mph 5.0 mph 70 % 0.00 in
19:56 19.4 °F 11.0 °F 30.51 in Calm   3.0 mph 70 % 0.00 in
20:11 19.2 °F 11.0 °F 30.51 in WNW 1.0 mph 4.0 mph 71 % 0.00 in
20:26 19.0 °F 11.0 °F 30.52 in WNW 1.0 mph 3.0 mph 71 % 0.00 in
20:41 18.8 °F 11.0 °F 30.52 in Calm   2.0 mph 72 % 0.00 in
20:56 18.6 °F 11.0 °F 30.52 in Calm   2.0 mph 73 % 0.00 in
21:11 18.4 °F 11.0 °F 30.52 in Calm     73 % 0.00 in
21:26 18.1 °F 11.0 °F 30.51 in Calm   2.0 mph 75 % 0.00 in
21:41 17.9 °F 12.0 °F 30.52 in WNW 1.0 mph 4.0 mph 76 % 0.00 in
21:56 18.1 °F 12.0 °F 30.52 in NW 1.0 mph 4.0 mph 76 % 0.00 in
22:11 18.2 °F 12.0 °F 30.51 in Calm   3.0 mph 75 % 0.00 in
22:26 18.3 °F 12.0 °F 30.50 in NW 1.0 mph 2.0 mph 75 % 0.00 in
22:41 18.5 °F 12.0 °F 30.50 in NW 1.0 mph 4.0 mph 75 % 0.00 in
22:56 18.7 °F 12.0 °F 30.51 in Calm   3.0 mph 76 % 0.00 in
23:11 18.8 °F 12.0 °F 30.52 in Calm   3.0 mph 75 % 0.00 in
23:26 18.9 °F 13.0 °F 30.51 in NW 2.0 mph 3.0 mph 76 % 0.00 in
23:41 19.0 °F 13.0 °F 30.52 in WNW 1.0 mph 7.0 mph 76 % 0.00 in
23:56 19.3 °F 13.0 °F 30.52 in Calm   4.0 mph 76 % 0.00 in
Des Moines Weather and Climate
Compliments of Weather Underground - 3 mb

Script developed by  Jim McMurry - jmcmurry@mwt.net Adapted for the template by  Wim van der Kuil - Leuven-Template.eu

You find our weather info also at:

Weather Underground

Equipment we use:

Weather-station
Davis VP2 Plus

Weather-program
Davis Weatherlink.Com

Weather-server
iMac (Retina 4K, 21.5-inch, Late 2015)

Provider
Hostmonster.com

Davis VP2 Plus

Davis Weatherlink.Com

iMac (Retina 4K, 21.5-inch, Late 2015)

Hostmonster.com